Worland, WY

10:09 PM MST on December 03, 2016 (GMT -0700)
Worland Municipal

Weather History for KWRL - March, 2013

Change the Weather History Date:

Monday, March 25, 2013

  Actual Average Record
Temperature  
Mean Temperature 28 °F 40 °F  
Max Temperature 43 °F 54 °F 77 °F (1999)
Min Temperature 13 °F 26 °F -15 °F (1965)
Degree Days  
Heating Degree Days 37 25  
Month to date heating degree days 745 739  
Since 1 July heating degree days 6327 6740  
Cooling Degree Days 0 0  
Month to date cooling degree days 0 0  
Year to date cooling degree days 0 0  
Moisture  
Dew Point 7 °F    
Average Humidity 47    
Maximum Humidity 76    
Minimum Humidity 18    
Precipitation  
Precipitation 0.00 in 0.01 in 0.57 in (1977)
Month to date precipitation 0.10 0.35  
Year to date precipitation 0.49 0.77  
Sea Level Pressure  
Sea Level Pressure 30.27 in    
Wind  
Wind Speed 5 mph (SSE)    
Max Wind Speed 15 mph    
Max Gust Speed 28 mph    
Visibility 10 miles    
Events      
T = Trace of Precipitation, MM = Missing Value Source: NWS Daily Summary

Daily Weather History Graph

Daily Weather History Graph

Search for Another Location

Airport or City:

Trip Planner

Search our weather history database for the weather conditions in past years. The results will help you decide how hot, cold, wet, or windy it might be!

Date:

Astronomy

Mar. 25, 2013 Rise Set
Actual Time 7:05 AM MDT 7:30 PM MDT
Civil Twilight 6:36 AM MDT 7:59 PM MDT
Nautical Twilight 6:02 AM MDT 8:33 PM MDT
Astronomical Twilight 5:27 AM MDT 9:08 PM MDT
Moon 6:03 PM MDT (3/25) 5:53 AM MDT (3/25)
Length of Visible Light 13h 23m
Length of Day
12h 25m
Waxing Gibbous, 97% of the Moon is Illuminated
Mar 25
Waxing Gibbous
Mar 27
Full
Apr 2
Last Quarter
Apr 10
New
Apr 18
First Quarter

Hourly Weather History & Observations

Time (MDT) Temp. Windchill Dew Point Humidity Pressure Visibility Wind Dir Wind Speed Gust Speed Precip Events Conditions
12:53 AM 18.0 °F 8.7 °F 6.1 °F 60% 30.35 in 10.0 mi SSW 6.9 mph - N/A   Clear
1:53 AM 16.0 °F 10.4 °F 6.1 °F 65% 30.36 in 10.0 mi South 3.5 mph - N/A   Clear
2:53 AM 16.0 °F 8.8 °F 6.1 °F 65% 30.36 in 10.0 mi South 4.6 mph - N/A   Clear
3:53 AM 14.0 °F - 7.0 °F 74% 30.36 in 10.0 mi Calm Calm - N/A   Clear
4:53 AM 16.0 °F - 8.1 °F 71% 30.36 in 10.0 mi Calm Calm - N/A   Clear
5:53 AM 16.0 °F - 8.1 °F 71% 30.36 in 10.0 mi Calm Calm - N/A   Clear
6:53 AM 12.9 °F 5.2 °F 7.0 °F 77% 30.38 in 10.0 mi South 4.6 mph - N/A   Clear
7:53 AM 15.1 °F 7.7 °F 8.1 °F 74% 30.39 in 10.0 mi South 4.6 mph - N/A   Clear
8:53 AM 21.0 °F 16.2 °F 9.0 °F 60% 30.37 in 10.0 mi SSW 3.5 mph - N/A   Clear
9:53 AM 26.1 °F - 10.0 °F 51% 30.36 in 10.0 mi Calm Calm - N/A   Clear
10:53 AM 30.9 °F 27.5 °F 8.1 °F 38% 30.33 in 10.0 mi WSW 3.5 mph - N/A   Clear
11:53 AM 35.1 °F 27.4 °F 7.0 °F 31% 30.32 in 10.0 mi South 10.4 mph - N/A   Clear
12:53 PM 36.0 °F 28.5 °F 3.9 °F 26% 30.29 in 10.0 mi SSE 10.4 mph - N/A   Clear
1:53 PM 37.9 °F 31.5 °F 3.9 °F 24% 30.26 in 10.0 mi SE 9.2 mph 16.1 mph N/A   Clear
2:53 PM 39.9 °F 36.7 °F 3.9 °F 22% 30.23 in 10.0 mi Variable 4.6 mph - N/A   Clear
3:53 PM 41.0 °F 35.8 °F 1.9 °F 20% 30.21 in 10.0 mi SSE 8.1 mph - N/A   Clear
4:53 PM 42.1 °F 36.6 °F 1.9 °F 19% 30.18 in 10.0 mi SE 9.2 mph - N/A   Clear
5:53 PM 42.1 °F 37.1 °F 1.9 °F 19% 30.16 in 10.0 mi SE 8.1 mph - N/A   Clear
6:53 PM 41.0 °F 35.8 °F 7.0 °F 25% 30.15 in 10.0 mi SE 8.1 mph - N/A   Clear
7:53 PM 32.0 °F 24.2 °F 10.0 °F 40% 30.16 in 10.0 mi ESE 9.2 mph - N/A   Clear
8:53 PM 30.9 °F 22.2 °F 12.0 °F 46% 30.14 in 10.0 mi ESE 10.4 mph - N/A   Clear
9:53 PM 28.0 °F 24.2 °F 10.9 °F 49% 30.14 in 10.0 mi WNW 3.5 mph - N/A   Clear
10:53 PM 28.9 °F - 12.9 °F 51% 30.12 in 10.0 mi Calm Calm - N/A   Clear
11:53 PM 24.1 °F - 12.9 °F 62% 30.12 in 10.0 mi Calm Calm - N/A   Clear